Flag for Argentina Weather past 2 weeks in Buenos Aires, Argentina

Now
54 °F

Clear.


Feels Like: 52 °F
Forecast: 49 / 60 °F
Wind: 7 mph from South

Location: Buenos Aires Airport

Current Time: Sep 3, 2015 at 4:59:22 AM

Latest Report: Sep 3, 2015 at 4:00 AM


Visibility: 10 mi

Pressure: 30.18 "Hg

Humidity: 67%

Dew point: 43 °F

Location of Buenos AiresLocation

Historic Weather in Buenos Aires — Graph

°F

Buenos Aires temperature yesterday

Maximum temperature yesterday: 59 °F (at 3:00 PM)
Minimum temperature yesterday: 50 °F (at 5:00 AM)
Average temperature yesterday: 54 °F

Past Weeks' High & Low Weather Summary

 TemperatureHumidityPressure
High77 °F (Aug 31, 2:00 PM)94% (Aug 19, 5:00 AM)30.48 "Hg (Aug 19, 5:00 AM)
Low45 °F (Sep 1, 7:00 AM)28% (Aug 27, 4:00 PM)29.71 "Hg (Aug 22, 6:00 AM)
Average58 °F69%30.05 "Hg
* Reported Aug 19 4:00 AM — Sep 3 4:00 AM, Buenos Aires, Weather by CustomWeather, © 2015

Note: Actual official high and low records may vary slightly from our data, if they occured in-between our weather recording intervals... More about our weather records

Advertising

Buenos Aires weather history for previous 24 hours

 ConditionsComfort  
Time TempWeatherWind HumidityBarometerVisibility
4:00 AM
Thu, Sep 3
54 °FClear.7 mph67%30.18 "Hg10 mi
3:00 AM55 °FClear.7 mph63%30.18 "Hg10 mi
2:00 AM55 °FClear.3 mph63%30.21 "Hg10 mi
1:00 AM55 °FClear.8 mph63%30.21 "Hg10 mi
12:00 AM55 °FClear.10 mph63%30.21 "Hg10 mi
11:00 PM
Wed, Sep 2
54 °FClear.9 mph77%30.21 "Hg10 mi
10:00 PM54 °FClear.10 mph77%30.21 "Hg10 mi
9:00 PM54 °FClear.9 mph77%30.21 "Hg10 mi
8:00 PM54 °FClear.6 mph77%30.21 "Hg10 mi
7:00 PM55 °FClear.6 mph72%30.18 "Hg10 mi
6:00 PM57 °FClear.6 mph67%30.18 "Hg10 mi
5:00 PM57 °FSunny.5 mph67%30.18 "Hg10 mi
4:00 PM57 °FSunny.5 mph67%30.18 "Hg10 mi
3:00 PM59 °FPartly sunny.5 mph63%30.21 "HgN/A
2:00 PM57 °FPartly sunny.5 mph67%30.21 "HgN/A
1:00 PM55 °FPartly sunny.7 mph67%30.24 "HgN/A
12:00 PM54 °FSunny.7 mph72%30.27 "Hg10 mi
11:00 AM54 °FSunny.10 mph72%30.27 "Hg10 mi
10:00 AM54 °FSunny.10 mph72%30.30 "Hg10 mi
9:00 AM52 °FSunny.7 mph77%30.30 "Hg10 mi
8:00 AM52 °FSunny.7 mph72%30.30 "Hg10 mi
7:00 AM52 °FPassing clouds.8 mph72%30.30 "HgN/A
6:00 AM50 °FPassing clouds.9 mph76%30.30 "HgN/A
5:00 AM50 °FMostly cloudy.6 mph76%30.33 "HgN/A
4:00 AM52 °FClear.12 mph67%30.30 "Hg10 mi
Weather by CustomWeather, © 2015

See weather overviewHow to use our weather pages